Regional Weather Roundup
Issued by NWS

Home | Current Version | Previous Version | Graphics & Text | Print | Product List | Glossary On
Versions: 1 2 3 4 5 6 7 8 9 10 11 12 13 14 15 16 17 18 19 20 21 22 23 24 25 26 27 28 29 30 31 32 33 34 35 36 37 38 39 40 41 42 43 44 45 46 47 48 49 50
000
ASUS43 KBIS 020502
RWRND

NORTH DAKOTA REGIONAL WEATHER ROUNDUP
NATIONAL WEATHER SERVICE BISMARCK ND
1200 AM CDT THU JUL 02 2015

NOTE: "FAIR" INDICATES FEW OR NO CLOUDS BELOW 12,000 FEET WITH NO
SIGNIFICANT WEATHER AND/OR OBSTRUCTIONS TO VISIBILITY.


NDZ001>003-009>011-017-020600-
NORTHWEST NORTH DAKOTA

CITY           SKY/WX    TMP DP  RH WIND       PRES   REMARKS
WILLISTON      LGT RAIN  66  61  84 NE5       30.02R
MINOT          CLOUDY    67  64  90 CALM      29.96S FOG
MINOT AFB      CLOUDY    65  65 100 CALM      29.95S FOG
$$

NDZ018>021-031>035-040>046-020600-
SOUTHWEST NORTH DAKOTA

CITY           SKY/WX    TMP DP  RH WIND       PRES   REMARKS
BISMARCK       CLOUDY    67  65  93 E3        29.96F
DICKINSON      CLOUDY    64  61  90 W5        29.99F
GARRISON         N/A     68  64  87 E3        29.96S
HETTINGER ARPT CLOUDY    64  61  90 N8        30.03R
$$

NDZ004>008-012>016-024-026-027-054-020600-
NORTHEAST NORTH DAKOTA

CITY           SKY/WX    TMP DP  RH WIND       PRES   REMARKS
GRAND FORKS    PTCLDY    65  61  87 S7        29.94F
GRND FRKS AFB  PTCLDY    64  61  89 S7        29.95S
DEVILS LAKE    MOCLDY    70  61  73 S8        29.94S
$$

NDZ022-023-025-028>030-036>039-047>053-020600-
SOUTHEAST NORTH DAKOTA

CITY           SKY/WX    TMP DP  RH WIND       PRES   REMARKS
FARGO          CLEAR     65  56  72 S9        29.97F
JAMESTOWN      CLEAR     65  62  90 S6        29.97R
$$




USA.gov is the U.S. government's official web portal to all federal, state and local government web resources and services.